Regional Weather Roundup
Issued by NWS Cleveland, OH

Home | Current Version | Previous Version | Text Only | Print | Product List | Glossary Off
Versions: 1 2 3 4 5 6 7 8 9 10 11 12 13 14 15 16 17 18 19 20 21 22 23 24 25 26 27 28 29 30 31 32 33 34 35 36 37 38 39 40 41 42 43 44 45 46 47 48 49 50

000
ASUS41 KCLE 261110
RWRCLE
OHIO REGIONAL WEATHER ROUNDUP
NATIONAL WEATHER SERVICE CLEVELAND, OH
700 AM EDT THU MAY 26 2016

NOTE: "FAIR" INDICATES FEW OR NO CLOUDS BELOW 12,000 FEET WITH NO
SIGNIFICANT WEATHER AND/OR OBSTRUCTIONS TO VISIBILITY.

OHZ001>008-015>018-024>027-034-035-043-044-261200-
   NORTHWEST OHIO

CITY           SKY/WX    TMP DP  RH WIND       PRES   REMARKS
DEFIANCE       CLOUDY    69  62  78 S6        30.00R
FINDLAY        CLOUDY    68  60  75 S9        30.01S
TOLEDO EXPRESS CLOUDY    67  62  84 SW5       29.99R
TOLEDO EXEC    CLOUDY    68  61  78 SW7       30.00R
LIMA           CLOUDY    67  61  81 S8        30.02F
$$

OHZ009>014-019>023-028>033-038-089-261200-
   NORTHEAST OHIO

CITY           SKY/WX    TMP DP  RH WIND       PRES   REMARKS
CLE-HOPKINS    CLOUDY    69  61  75 S9        30.05S
CLE-LAKEFRONT  MOCLDY    71  61  70 S9        30.02S
CUY CO. ARPT   MOCLDY    70  63  78 S12       30.05
LORAIN-ELYRIA  MOCLDY    65  59  81 S7        30.03S
ASHTABULA      PTSUNNY   67  59  75 S7        30.07R
AKRON-CANTON   PTCLDY    67  60  78 S9        30.08S
WOOSTER        MOCLDY    64  60  87 S6        30.07S
MANSFIELD      CLOUDY    65  62  90 S12       30.06R
YOUNGSTOWN     CLOUDY    68  58  70 S6        30.08S
$$

OHZ042-051>053-060>062-070>072-077>081-261200-
  SOUTHWEST OHIO

CITY           SKY/WX    TMP DP  RH WIND       PRES   REMARKS
CINC-COVINGTON MOCLDY    66  63  90 S9        30.08R
CINC-LUNKEN    CLOUDY    63  63 100 SW3       30.09R
HAMILTON       CLOUDY    67  63  87 SW6       30.08R
DAYTON         CLOUDY    67  62  84 SW12      30.06S
WRIGHT-PAT AFB MOCLDY    67  65  93 S6        30.05S
DAYTON GENERAL CLOUDY    66  61  84 S6        30.06S
WILMINGTON     PTCLDY    65  62  90 S7        30.07S
$$

OHZ036-037-039>041-045>050-054>059-063>069-073>076-082>088-261200-
  CENTRAL AND SOUTHEAST OHIO

CITY           SKY/WX    TMP DP  RH WIND       PRES   REMARKS
COLUMBUS       CLOUDY    66  62  87 SE3       30.06S
OSU AIRPORT    CLOUDY    67  62  84 S7        30.05
BOLTON FIELD   CLOUDY    65  63  94 S7        30.06S
RICKENBACK AFB CLOUDY    66  62  86 S9        30.06S
NEWARK         MOCLDY    66  61  84 S5        30.07R
MARION           N/A    N/A N/A N/A MISG      30.05S
LANCASTER      CLOUDY    67  61  81 SE7       30.08S
ZANESVILLE     MOCLDY    69  61  75 S8        30.10R
NEW PHILLY     CLOUDY    69  60  73 VRB3      30.09S
$$




USA.gov is the U.S. government's official web portal to all federal, state and local government web resources and services.